Waarnemingen

Advertentie
Mijn weer
Fürstenzell, Duitsland (10895): temperatuur & dauwpunt: 19.04.2018 12:00:00 - 25.04.2018 12:00:00 (CEST)Fürstenzell, Duitsland (10895): temperatuur 5cm & temperatuur -5cm: 19.04.2018 12:00:00 - 25.04.2018 12:00:00 (CEST)Fürstenzell, Duitsland (10895): temperatuur -20cm & temperatuur -100cm: 19.04.2018 12:00:00 - 25.04.2018 12:00:00 (CEST)Fürstenzell, Duitsland (10895): windsnelheid & windstoten: 19.04.2018 12:00:00 - 25.04.2018 12:00:00 (CEST)Fürstenzell, Duitsland (10895): windrichting: 19.04.2018 12:00:00 - 25.04.2018 12:00:00 (CEST)Fürstenzell, Duitsland (10895): luchtdruk: 19.04.2018 12:00:00 - 25.04.2018 12:00:00 (CEST)Fürstenzell, Duitsland (10895): zicht: 19.04.2018 12:00:00 - 25.04.2018 12:00:00 (CEST)Fürstenzell, Duitsland (10895): Zonneschijnduur: 19.04.2018 12:00:00 - 25.04.2018 12:00:00 (CEST)Fürstenzell, Duitsland (10895): neerslag: 19.04.2018 12:00:00 - 25.04.2018 12:00:00 (CEST)
Datum & Tijd tt [°C] td [°C] tt 5cm [°C] tt -5cm [°C] tt -20cm [°C] tt -100cm [°C] ff [km/u] ff [kn] fx [km/u] fx [kn] dd ppp [hPa] vv [km] sd [min] rr [mm]
25.04.2018 12:00:00 20,4 9,7 23,9 21,3 15,6 11,7 17 9 39 21 ZW 1012,5 22 60 0,0
25.04.2018 11:00:00 18,4 9,0 22,3 19,1 15,3 11,7 20 11 31 17 WZW 1013,6 13 60 0,0
25.04.2018 10:00:00 15,3 10,5 17,8 16,3 15,1 11,7 7 4 16 9 ZZW 1014,4 17 43 0,0
25.04.2018 09:00:00 12,6 9,4 13,7 14,7 15,2 11,7 7 4 13 7 ZZW 1015,0 19 46 0,0
25.04.2018 08:00:00 11,6 8,9 12,5 13,0 15,4 11,7 6 4 14 7 Z 1014,8 16 53 0,0
25.04.2018 07:00:00 8,8 7,8 6,8 12,3 15,7 11,7 5 3 9 5 ONO 1015,2 11 0 0,0
25.04.2018 06:00:00 10,4 8,7 6,7 12,7 16,0 11,7 5 3 10 5 ZZO 1014,4 17 0 0,0
25.04.2018 05:00:00 10,5 8,7 8,4 13,1 16,3 11,6 5 3 9 5 Z 1014,5 16 0 0,0
25.04.2018 04:00:00 11,4 8,8 8,7 13,5 16,7 11,6 5 3 10 5 ZZO 1014,4 20 0 0,0
25.04.2018 03:00:00 12,3 9,0 7,6 14,0 17,0 11,6 4 2 9 5 Z 1014,6 21 0 0,0
25.04.2018 02:00:00 12,7 9,2 9,3 14,4 17,4 11,6 7 4 10 5 ZZO 1014,8 23 0 0,0
25.04.2018 01:00:00 12,2 9,0 8,9 15,0 17,8 11,6 3 2 5 3 NO 1015,4 26 0 0,0
25.04.2018 00:00:00 13,2 8,9 7,6 15,7 18,2 11,6 2 1 5 3 O 1015,6 32 0 0,0
24.04.2018 23:00:00 16,1 6,8 8,9 16,5 18,5 11,6 4 2 6 3 WNW 1015,2 32 0 0,0
24.04.2018 22:00:00 16,1 6,6 9,9 17,5 18,9 11,6 4 2 8 4 NW 1015,6 37 0 0,0
24.04.2018 21:00:00 17,1 6,7 10,6 18,7 19,1 11,6 7 4 8 4 WNW 1015,4 38 0 0,0
24.04.2018 20:00:00 18,2 7,0 14,2 20,5 19,1 11,5 5 3 15 8 W 1014,9 38 14 0,0
24.04.2018 19:00:00 19,1 7,2 18,5 21,7 19,0 11,5 10 5 26 14 W 1015,1 35 44 0,0
24.04.2018 18:00:00 20,4 7,8 21,5 22,7 18,8 11,5 14 7 32 17 W 1015,1 31 57 0,0
24.04.2018 17:00:00 20,4 8,4 22,3 23,2 18,4 11,5 20 11 32 18 W 1015,3 15 53 0,0
24.04.2018 16:00:00 19,7 8,0 21,4 23,4 17,9 11,5 18 10 32 18 WZW 1015,8 27 51 0,0
24.04.2018 15:00:00 18,7 9,8 21,0 22,9 17,4 11,5 15 8 31 17 WNW 1016,8 29 44 0,0
24.04.2018 14:00:00 18,3 10,1 20,8 21,8 16,9 11,5 13 7 37 20 W 1017,6 24 38 0,0
24.04.2018 13:00:00 18,0 9,7 22,3 20,7 16,6 11,4 22 12 33 18 W 1018,2 16 58 0,0
24.04.2018 12:00:00 15,9 9,9 19,0 18,0 16,4 11,4 12 7 25 13 W 1019,3 20 25 0,0
24.04.2018 11:00:00 15,1 10,6 16,8 16,9 16,4 11,4 14 8 29 16 WNW 1019,7 21 10 0,0
24.04.2018 10:00:00 14,8 10,2 16,8 16,8 16,3 11,4 21 11 34 18 W 1019,9 19 26 0,0
24.04.2018 09:00:00 14,1 11,8 14,8 16,0 16,4 11,4 8 4 24 13 WZW 1019,7 15 20 0,0
24.04.2018 08:00:00 13,4 11,6 14,0 15,0 16,6 11,4 15 8 29 15 WZW 1019,6 14 26 0,0
24.04.2018 07:00:00 12,8 11,7 12,2 14,8 16,8 11,4 16 8 28 15 W 1019,2 12 0 0,0
24.04.2018 06:00:00 12,5 12,2 12,1 15,1 17,0 11,3 11 6 25 13 WZW 1018,7 8 0 1,4
24.04.2018 05:00:00 12,8 11,3 12,5 15,2 17,3 11,3 18 10 32 18 WZW 1018,4 23 0 0,0
24.04.2018 04:00:00 12,9 11,4 12,0 15,6 17,6 11,3 21 11 32 17 WZW 1018,2 22 0 0,0
24.04.2018 03:00:00 13,6 12,0 12,6 16,0 17,8 11,3 22 12 31 17 WZW 1018,0 18 0 0,1
24.04.2018 02:00:00 14,0 11,8 12,8 16,5 18,1 11,3 14 8 25 14 W 1017,9 19 0 0,2
24.04.2018 01:00:00 15,3 10,6 14,8 17,1 18,4 11,3 19 10 29 16 WZW 1017,5 36 0 0,0
24.04.2018 00:00:00 15,7 9,8 15,0 17,5 18,6 11,2 20 11 31 17 WZW 1017,2 36 0 0,0
23.04.2018 23:00:00 16,0 9,1 15,0 17,9 18,9 11,2 16 9 23 13 WZW 1016,4 41 0 0,0
23.04.2018 22:00:00 16,7 10,3 15,5 18,8 19,2 11,2 13 7 21 11 W 1015,9 43 0 0,0
23.04.2018 21:00:00 17,3 10,1 16,2 19,5 19,4 11,2 10 6 20 11 WNW 1015,2 52 0 0,0
23.04.2018 20:00:00 18,2 10,0 17,0 20,4 19,5 11,2 20 11 31 17 WNW 1014,8 47 0 0,0
23.04.2018 19:00:00 19,2 10,4 18,5 21,7 19,5 11,2 19 10 37 20 NW 1013,7 41 12 0,0
23.04.2018 18:00:00 21,0 10,0 21,7 23,0 19,3 11,1 28 15 45 24 WNW 1013,4 14 55 0,0
23.04.2018 17:00:00 21,9 9,2 23,4 23,7 19,0 11,1 32 18 46 25 WNW 1013,0 10 57 0,0
23.04.2018 16:00:00 22,8 8,1 24,2 23,4 18,7 11,1 22 12 35 19 W 1013,0 21 11 0,0
23.04.2018 15:00:00 21,9 8,7 23,4 23,3 18,3 11,1 16 9 25 14 W 1013,8 32 12 0,0
23.04.2018 14:00:00 21,5 9,8 23,0 23,6 17,8 11,1 10 5 16 9 ZW 1014,5 23 15 0,0
23.04.2018 13:00:00 20,8 11,0 23,5 22,4 17,4 11,0 4 2 13 7 ZW 1015,0 22 29 0,0
23.04.2018 12:00:00 18,8 10,9 21,6 20,5 17,1 11,0 6 4 11 6 Z 1015,7 16 18 0,0
23.04.2018 11:00:00 18,0 9,4 20,4 19,1 16,9 11,0 6 4 15 8 WZW 1015,9 20 0 0,0
23.04.2018 10:00:00 17,3 10,7 19,1 18,3 16,8 11,0 5 3 12 6 ZW 1015,9 15 39 0,0
23.04.2018 09:00:00 15,5 9,0 16,5 16,3 16,9 11,0 6 3 16 9 W 1016,2 18 18 0,0
23.04.2018 08:00:00 13,6 9,5 13,5 15,1 17,1 10,9 6 3 11 6 WZW 1016,4 11 0 0,0
23.04.2018 07:00:00 12,9 9,4 11,7 14,8 17,5 10,9 8 4 13 7 ZW 1015,7 10 0 0,0
23.04.2018 06:00:00 12,8 9,3 10,2 15,0 17,8 10,9 7 4 10 5 ZZW 1015,3 11 0 0,0
23.04.2018 05:00:00 13,4 8,8 10,0 15,6 18,2 10,9 3 2 12 6 OZO 1015,1 16 0 0,0
23.04.2018 04:00:00 15,9 8,2 10,5 16,0 18,5 10,9 6 3 10 5 Z 1014,5 22 0 0,0
23.04.2018 03:00:00 16,7 9,0 10,0 16,6 18,9 10,9 4 2 10 5 ONO 1014,4 27 0 0,0
23.04.2018 02:00:00 14,9 9,0 12,2 17,2 19,3 10,8 8 4 16 9 NO 1015,0 22 0 0,0
23.04.2018 01:00:00 15,9 8,5 13,4 17,9 19,8 10,8 5 3 7 4 NO 1014,7 27 0 0,0
23.04.2018 00:00:00 18,1 8,5 12,0 18,8 20,2 10,8 5 3 10 6 Z 1013,9 20 0 0,0
22.04.2018 23:00:00 20,1 7,0 13,6 19,6 20,6 10,8 6 4 9 5 Z 1013,6 33 0 0,0
22.04.2018 22:00:00 21,3 6,4 12,7 20,8 21,0 10,8 5 3 6 4 Z 1013,4 39 0 0,0
22.04.2018 21:00:00 22,1 6,2 13,7 22,2 21,2 10,8 4 2 5 3 ONO 1013,1 39 0 0,0
22.04.2018 20:00:00 22,3 6,1 16,3 24,2 21,3 10,7 3 1 9 5 NNW 1012,7 35 39 0,0
22.04.2018 19:00:00 24,1 6,5 23,1 25,8 21,2 10,7 5 3 16 9 NNW 1012,1 41 60 0,0
22.04.2018 18:00:00 24,9 5,4 25,9 27,0 20,8 10,7 12 7 22 12 NW 1012,3 34 59 0,0
22.04.2018 17:00:00 25,5 7,3 27,1 27,9 20,3 10,7 13 7 25 14 W 1012,6 20 60 0,0
22.04.2018 16:00:00 24,9 7,3 29,5 28,3 19,6 10,7 8 4 25 13 NW 1013,2 20 60 0,0
22.04.2018 15:00:00 25,0 8,5 29,6 28,1 18,8 10,6 9 5 20 11 WZW 1013,7 16 59 0,0
22.04.2018 14:00:00 24,0 11,1 28,3 27,0 18,0 10,6 6 4 13 7 ZW 1014,3 19 60 0,0
22.04.2018 13:00:00 22,8 11,1 26,8 25,3 17,3 10,6 5 3 14 7 WZW 1014,9 17 60 0,0
22.04.2018 12:00:00 21,2 11,3 25,0 23,4 16,8 10,6 6 4 14 7 Z 1015,7 16 60 0,0
22.04.2018 11:00:00 19,7 11,0 22,7 21,3 16,4 10,6 9 5 16 8 ZO 1016,3 17 60 0,0
22.04.2018 10:00:00 18,4 11,8 20,7 18,9 16,2 10,5 5 3 8 4 ZW 1016,6 13 60 0,0
22.04.2018 09:00:00 16,4 10,7 18,0 16,5 16,3 10,5 5 3 9 5 NO 1016,9 18 59 0,0
22.04.2018 08:00:00 14,1 10,5 14,7 14,8 16,5 10,5 6 3 8 5 ONO 1017,4 12 60 0,0
22.04.2018 07:00:00 13,6 9,6 11,6 14,2 16,9 10,5 7 4 8 4 NNO 1017,3 13 13 0,0
22.04.2018 06:00:00 14,1 9,6 7,7 14,5 17,2 10,5 0 0 5 3 N 1016,8 15 0 0,0
22.04.2018 05:00:00 14,4 9,6 8,9 15,1 17,6 10,5 4 2 9 5 NNO 1016,9 17 0 0,0
22.04.2018 04:00:00 15,3 9,8 13,3 15,7 18,0 10,4 8 4 12 6 NNO 1016,9 17 0 0,0
22.04.2018 03:00:00 15,3 9,7 10,0 16,3 18,3 10,4 8 5 10 5 O 1017,0 21 0 0,0
22.04.2018 02:00:00 15,3 9,6 12,6 17,0 18,7 10,4 10 5 17 9 NO 1017,4 23 0 0,0
22.04.2018 01:00:00 16,1 9,3 14,8 17,6 19,1 10,4 16 8 20 11 NNO 1017,3 26 0 0,0
22.04.2018 00:00:00 16,8 9,2 15,4 18,4 19,5 10,4 15 8 29 16 NNO 1017,3 27 0 0,0
21.04.2018 23:00:00 18,8 8,7 16,3 19,4 19,9 10,4 6 4 12 6 NO 1016,5 26 0 0,0
21.04.2018 22:00:00 21,2 7,7 16,0 20,4 20,2 10,3 11 6 15 8 WNW 1016,1 27 0 0,0
21.04.2018 21:00:00 22,0 7,5 18,7 21,7 20,4 10,3 12 6 16 9 W 1015,9 31 0 0,0
21.04.2018 20:00:00 22,4 7,9 20,0 23,5 20,5 10,3 12 7 20 11 W 1015,5 17 42 0,0
21.04.2018 19:00:00 24,3 7,4 23,2 25,2 20,3 10,3 12 6 22 12 W 1015,3 29 60 0,0
21.04.2018 18:00:00 25,0 7,4 25,8 26,2 20,0 10,3 15 8 24 13 WNW 1015,4 21 60 0,0
21.04.2018 17:00:00 25,6 6,4 27,4 27,1 19,5 10,2 16 9 36 19 WNW 1015,9 17 60 0,0
21.04.2018 16:00:00 25,3 7,7 28,4 27,8 18,7 10,2 14 8 24 13 W 1016,3 21 60 0,0
21.04.2018 15:00:00 24,9 9,2 29,0 27,4 17,9 10,2 13 7 23 13 WZW 1016,9 21 60 0,0
21.04.2018 14:00:00 23,5 10,0 27,2 26,3 17,1 10,2 9 5 16 9 ZW 1017,7 16 60 0,0
21.04.2018 13:00:00 22,0 9,8 26,1 24,7 16,4 10,2 8 4 16 8 ZW 1018,4 14 60 0,0
21.04.2018 12:00:00 20,6 9,0 24,2 22,7 15,8 10,2 5 3 12 6 ZW 1019,1 24 60 0,0
21.04.2018 11:00:00 18,2 8,6 21,6 20,4 15,4 10,1 5 3 14 8 Z 1019,7 18 60 0,0
21.04.2018 10:00:00 16,5 7,4 19,0 17,9 15,2 10,1 8 4 13 7 ZZW 1020,0 34 60 0,0
21.04.2018 09:00:00 16,1 7,6 17,5 15,5 15,2 10,1 4 2 9 5 ZZO 1020,0 36 60 0,0
21.04.2018 08:00:00 13,2 6,9 14,1 13,4 15,5 10,1 6 4 9 5 NO 1020,6 33 60 0,0
21.04.2018 07:00:00 11,2 5,9 9,4 12,8 15,9 10,1 6 3 10 5 ONO 1020,8 32 31 0,0
21.04.2018 06:00:00 11,4 5,3 9,7 13,1 16,2 10,1 9 5 10 5 NO 1020,4 43 0 0,0
21.04.2018 05:00:00 12,0 6,3 7,8 13,7 16,6 10,0 7 4 9 5 ONO 1020,5 40 0 0,0
21.04.2018 04:00:00 13,1 5,8 8,5 14,3 17,0 10,0 6 4 10 6 NNO 1020,7 50 0 0,0
21.04.2018 03:00:00 12,9 7,5 8,8 15,0 17,4 10,0 6 3 15 8 NNO 1020,9 38 0 0,0
21.04.2018 02:00:00 14,4 6,7 10,2 15,7 17,9 10,0 11 6 14 8 O 1020,6 46 0 0,0
21.04.2018 01:00:00 15,6 7,2 11,7 16,6 18,3 10,0 9 5 16 9 O 1021,1 44 0 0,0
21.04.2018 00:00:00 17,7 5,7 14,1 17,5 18,7 10,0 14 8 26 14 OZO 1021,1 53 0 0,0
20.04.2018 23:00:00 18,8 5,7 16,2 18,4 19,1 9,9 21 11 29 15 OZO 1021,1 57 0 0,0
20.04.2018 22:00:00 20,1 5,5 16,0 19,5 19,4 9,9 11 6 19 11 OZO 1021,2 51 0 0,0
20.04.2018 21:00:00 20,6 7,1 14,7 21,0 19,6 9,9 12 6 20 11 OZO 1021,0 63 0 0,0
20.04.2018 20:00:00 21,8 7,4 18,5 22,9 19,7 9,9 12 7 19 11 O 1020,5 53 43 0,0
20.04.2018 19:00:00 23,8 7,2 22,4 24,6 19,5 9,9 12 7 20 11 O 1020,4 50 60 0,0
20.04.2018 18:00:00 24,8 6,0 25,5 25,7 19,1 9,9 14 7 24 13 ZO 1020,8 40 60 0,0
20.04.2018 17:00:00 25,1 3,4 26,4 26,3 18,5 9,9 18 10 30 16 OZO 1021,4 26 60 0,0
20.04.2018 16:00:00 25,6 5,3 28,0 26,8 17,8 9,8 17 9 29 16 ZO 1021,9 26 60 0,0
20.04.2018 15:00:00 25,0 4,0 27,7 26,3 17,1 9,8 23 13 35 19 ZO 1022,7 18 60 0,0
20.04.2018 14:00:00 24,6 8,6 27,9 25,4 16,3 9,8 18 10 29 16 ZO 1023,2 15 60 0,0
20.04.2018 13:00:00 23,4 10,4 26,6 23,8 15,6 9,8 17 9 31 17 OZO 1024,0 26 60 0,0
20.04.2018 12:00:00 21,9 8,8 24,8 21,9 15,0 9,8 19 11 34 18 OZO 1024,6 20 60 0,0
20.04.2018 11:00:00 21,4 11,4 23,8 19,7 14,6 9,8 19 10 32 17 OZO 1024,9 21 60 0,0
20.04.2018 10:00:00 19,6 9,9 20,7 17,4 14,4 9,7 22 12 32 17 O 1025,2 30 60 0,0
20.04.2018 09:00:00 17,9 9,5 18,9 15,1 14,4 9,7 12 6 16 9 ONO 1025,5 28 60 0,0
20.04.2018 08:00:00 14,8 9,0 15,0 13,1 14,6 9,7 13 7 16 9 NO 1026,1 24 60 0,0
20.04.2018 07:00:00 12,3 7,9 10,9 12,4 14,9 9,7 13 7 17 9 NO 1026,7 22 21 0,0
20.04.2018 06:00:00 11,8 7,5 10,2 12,8 15,2 9,7 13 7 16 8 NO 1026,6 29 0 0,0
20.04.2018 05:00:00 12,7 7,4 11,0 13,2 15,6 9,7 12 7 17 9 NO 1026,4 34 0 0,0
20.04.2018 04:00:00 12,6 7,4 10,9 13,6 15,9 9,7 14 8 19 11 NO 1026,7 37 0 0,0
20.04.2018 03:00:00 12,6 7,6 11,1 14,1 16,3 9,7 14 8 16 9 NO 1027,0 36 0 0,0
20.04.2018 02:00:00 13,2 7,5 11,7 14,7 16,7 9,6 10 6 15 8 NO 1027,4 31 0 0,0
20.04.2018 01:00:00 14,8 7,8 10,9 15,5 17,0 9,6 10 6 17 9 ONO 1027,4 36 0 0,0
20.04.2018 00:00:00 17,2 7,5 14,4 16,3 17,4 9,6 9 5 16 9 ONO 1027,2 42 0 0,0
19.04.2018 23:00:00 16,5 7,5 13,1 17,2 17,8 9,6 11 6 14 8 ONO 1027,4 43 0 0,0
19.04.2018 22:00:00 17,4 7,4 15,3 18,3 18,1 9,6 12 7 21 11 NO 1027,3 47 0 0,0
19.04.2018 21:00:00 18,8 7,1 16,7 19,7 18,3 9,6 15 8 30 16 ONO 1026,9 48 0 0,0
19.04.2018 20:00:00 20,3 7,5 18,5 21,4 18,3 9,6 21 11 32 17 ONO 1026,1 53 54 0,0
19.04.2018 19:00:00 22,2 7,7 21,5 23,0 18,1 9,6 18 10 27 15 ONO 1025,6 65 60 0,0
19.04.2018 18:00:00 23,2 8,4 23,7 24,1 17,7 9,5 11 6 29 16 O 1025,6 47 60 0,0
19.04.2018 17:00:00 23,8 8,3 25,2 24,6 17,2 9,5 15 8 40 22 ZO 1025,8 29 60 0,0
19.04.2018 16:00:00 23,2 5,9 25,5 25,0 16,5 9,5 23 12 35 19 ZO 1026,7 28 60 0,0
19.04.2018 15:00:00 23,1 7,6 26,1 24,8 15,7 9,5 14 8 31 17 O 1027,3 25 60 0,0
19.04.2018 14:00:00 22,9 6,4 26,0 23,9 14,9 9,5 16 9 25 13 OZO 1027,8 31 60 0,0
19.04.2018 13:00:00 21,6 6,0 25,8 22,3 14,1 9,5 9 5 19 10 OZO 1028,6 26 60 0,0
19.04.2018 12:00:00 20,7 6,9 23,9 20,2 13,5 9,5 13 7 22 12 O 1029,2 24 60 0,0

tt = temperatuur
td = dauwpunt
tt 5cm = temperatuur 5cm
tt -5cm = temperatuur -5cm
tt -20cm = temperatuur -20cm
tt -100cm = temperatuur -100cm
ff = windsnelheid
fx = windstoten
dd = windrichting
ppp = luchtdruk
vv = zicht
sd = Zonneschijnduur
rr = neerslag

Weerstations in de omgeving